When you browse on this site, cookies collect data to enhance your experience and personalize the content and advertising you see.
Visit our Privacy Policy to learn more. By continuing to use the site, you agree to this use of cookies and data.
  • In Czech Republic
  • List of Countries
  • For 7 days
  • Water Temperature
  • Satellite Maps
  • Weather Map
  • Weather Widgets
  • user-avatar
    Login

    Hourly Weather Nkongsamba

    Today, 19 June, Wednesday

    Time Temperature Precipitation Wind Pressure Humidity
    00:00 +20°C° 0.2 mm 0 mps 687 mmHg 98%
    01:00 +20°C° 0 mm 0 mps 687 mmHg 99%
    02:00 +20°C° 0.3 mm 0 mps 687 mmHg 99%
    03:00 +20°C° 0.3 mm 0 mps 687 mmHg 98%
    04:00 +20°C° 0.3 mm 0 mps 686 mmHg 98%
    05:00 +20°C° 0.1 mm 0 mps 687 mmHg 98%
    06:00 +20°C° 0.1 mm 0 mps 687 mmHg 97%
    07:00 +20°C° 0.1 mm 0 mps 687 mmHg 97%
    08:00 +22°C° 0.4 mm 0 mps 688 mmHg 91%
    09:00 +23°C° 0.4 mm 0 mps 688 mmHg 85%
    10:00 +25°C° 0.4 mm 0 mps 689 mmHg 79%
    11:00 +27°C° 0.9 mm 1 mps 688 mmHg 79%
    12:00 +27°C° 0.9 mm 1 mps 688 mmHg 78%
    13:00 +28°C° 0.9 mm 1 mps 687 mmHg 78%
    14:00 +27°C° 1.7 mm 1 mps 687 mmHg 82%
    15:00 +26°C° 1.7 mm 1 mps 686 mmHg 87%
    16:00 +26°C° 1.7 mm 1 mps 685 mmHg 91%
    17:00 +25°C° 0.6 mm 1 mps 686 mmHg 93%
    18:00 +24°C° 0.6 mm 1 mps 686 mmHg 96%
    19:00 +23°C° 0.6 mm 1 mps 686 mmHg 98%
    20:00 +21°C° 0.2 mm 0 mps 687 mmHg 99%
    21:00 +20°C° 0.2 mm 0 mps 687 mmHg 99%
    22:00 +20°C° 0.2 mm 0 mps 688 mmHg 99%
    23:00 +20°C° 0.2 mm 0 mps 688 mmHg 99%

    Tomorrow, 20 June, Thursday

    Time Temperature Precipitation Wind Pressure Humidity
    00:00 +20°C° 0.2 mm 0 mps 688 mmHg 99%
    01:00 +20°C° 0.2 mm 0 mps 687 mmHg 99%
    02:00 +20°C° 0.3 mm 0 mps 687 mmHg 99%
    03:00 +20°C° 0.3 mm 0 mps 687 mmHg 99%
    04:00 +20°C° 0.3 mm 0 mps 686 mmHg 99%
    05:00 +20°C° 0.2 mm 0 mps 687 mmHg 99%
    06:00 +20°C° 0.2 mm 0 mps 687 mmHg 99%
    07:00 +20°C° 0.2 mm 0 mps 687 mmHg 99%
    08:00 +20°C° 0.3 mm 0 mps 688 mmHg 99%
    09:00 +20°C° 0.3 mm 0 mps 688 mmHg 98%
    10:00 +20°C° 0.3 mm 0 mps 688 mmHg 98%
    11:00 +23°C° 0.6 mm 1 mps 688 mmHg 95%
    12:00 +24°C° 0.6 mm 1 mps 687 mmHg 91%
    13:00 +25°C° 0.6 mm 1 mps 687 mmHg 88%
    14:00 +25°C° 1.3 mm 1 mps 686 mmHg 88%
    15:00 +25°C° 1.3 mm 1 mps 686 mmHg 88%
    16:00 +25°C° 1.3 mm 1 mps 686 mmHg 88%
    17:00 +24°C° 2.1 mm 1 mps 686 mmHg 92%
    18:00 +23°C° 2.1 mm 1 mps 686 mmHg 95%
    19:00 +22°C° 2.1 mm 1 mps 687 mmHg 98%
    20:00 +22°C° 1.8 mm 1 mps 687 mmHg 99%
    21:00 +22°C° 1.8 mm 1 mps 688 mmHg 99%
    22:00 +20°C° 1.8 mm 0 mps 688 mmHg 99%
    23:00 +19°C° 1.5 mm 0 mps 688 mmHg 99%

    Day after tomorrow, 21 June, Friday

    Time Temperature Precipitation Wind Pressure Humidity
    00:00 +19°C° 1.5 mm 0 mps 688 mmHg 99%
    01:00 +19°C° 1.5 mm 0 mps 688 mmHg 99%
    02:00 +19°C° 2.1 mm 0 mps 687 mmHg 99%
    03:00 +19°C° 2.1 mm 0 mps 687 mmHg 99%
    04:00 +19°C° 2.1 mm 0 mps 687 mmHg 99%
    05:00 +19°C° 2.7 mm 0 mps 687 mmHg 99%
    06:00 +19°C° 2.7 mm 0 mps 688 mmHg 98%
    07:00 +19°C° 2.7 mm 0 mps 688 mmHg 98%
    08:00 +20°C° 0.3 mm 0 mps 689 mmHg 96%
    09:00 +20°C° 0.3 mm 0 mps 689 mmHg 94%
    10:00 +21°C° 0.3 mm 0 mps 690 mmHg 93%
    11:00 +21°C° 1 mm 0 mps 689 mmHg 94%
    12:00 +21°C° 1 mm 0 mps 689 mmHg 95%
    13:00 +21°C° 1 mm 0 mps 688 mmHg 96%
    14:00 +20°C° 1 mm 0 mps 688 mmHg 96%
    15:00 +20°C° 1 mm 0 mps 687 mmHg 96%
    16:00 +20°C° 1 mm 0 mps 687 mmHg 96%
    17:00 +20°C° 0.2 mm 0 mps 687 mmHg 97%
    18:00 +19°C° 0.2 mm 0 mps 687 mmHg 98%
    19:00 +19°C° 0.2 mm 0 mps 687 mmHg 99%
    20:00 +19°C° 0.4 mm 0 mps 688 mmHg 99%
    21:00 +19°C° 0.4 mm 0 mps 688 mmHg 99%
    22:00 +19°C° 0.4 mm 0 mps 688 mmHg 99%
    23:00 +19°C° 0.3 mm 0 mps 688 mmHg 99%

    22 June, Saturday

    Time Temperature Precipitation Wind Pressure Humidity
    00:00 +18°C° 0.3 mm 0 mps 688 mmHg 99%
    01:00 +18°C° 0.3 mm 0 mps 687 mmHg 99%
    02:00 +18°C° 0 mm 0 mps 687 mmHg 99%
    03:00 +18°C° 0 mm 0 mps 687 mmHg 99%
    04:00 +18°C° 0 mm 0 mps 686 mmHg 99%
    05:00 +18°C° 0.1 mm 0 mps 687 mmHg 98%
    06:00 +18°C° 0.1 mm 0 mps 687 mmHg 98%
    07:00 +18°C° 0.1 mm 0 mps 688 mmHg 98%
    08:00 +19°C° 0 mm 0 mps 688 mmHg 95%
    09:00 +20°C° 0 mm 0 mps 689 mmHg 92%
    10:00 +21°C° 0 mm 0 mps 689 mmHg 89%
    11:00 +22°C° 0 mm 0 mps 688 mmHg 88%
    12:00 +25°C° 0 mm 1 mps 688 mmHg 83%
    13:00 +26°C° 0 mm 1 mps 687 mmHg 78%
    14:00 +26°C° 0.4 mm 1 mps 687 mmHg 78%
    15:00 +26°C° 0.4 mm 1 mps 687 mmHg 79%
    16:00 +26°C° 0.4 mm 1 mps 686 mmHg 80%
    17:00 +25°C° 0.4 mm 1 mps 686 mmHg 85%
    18:00 +23°C° 0.4 mm 1 mps 686 mmHg 91%
    19:00 +22°C° 0.4 mm 1 mps 686 mmHg 97%
    20:00 +22°C° 0.1 mm 1 mps 687 mmHg 98%
    21:00 +20°C° 0.1 mm 0 mps 687 mmHg 98%
    22:00 +20°C° 0.1 mm 0 mps 688 mmHg 99%
    23:00 +20°C° 0.2 mm 0 mps 687 mmHg 99%

    23 June, Sunday

    Time Temperature Precipitation Wind Pressure Humidity
    00:00 +19°C° 0.2 mm 0 mps 687 mmHg 99%
    01:00 +19°C° 0.2 mm 0 mps 687 mmHg 99%
    02:00 +19°C° 0.5 mm 0 mps 686 mmHg 99%
    03:00 +19°C° 0.5 mm 0 mps 686 mmHg 99%
    04:00 +19°C° 0.5 mm 0 mps 686 mmHg 99%
    05:00 +19°C° 0 mm 0 mps 686 mmHg 98%
    06:00 +19°C° 0 mm 0 mps 686 mmHg 98%
    07:00 +19°C° 0 mm 0 mps 687 mmHg 98%
    08:00 +20°C° 0.2 mm 0 mps 687 mmHg 94%
    09:00 +22°C° 0.2 mm 0 mps 688 mmHg 90%
    10:00 +25°C° 0.2 mm 1 mps 689 mmHg 86%
    11:00 +25°C° 1.4 mm 1 mps 688 mmHg 86%
    12:00 +26°C° 1.4 mm 1 mps 687 mmHg 86%
    13:00 +26°C° 1.4 mm 1 mps 687 mmHg 85%
    14:00 +25°C° 1.6 mm 1 mps 686 mmHg 88%
    15:00 +25°C° 1.6 mm 1 mps 686 mmHg 91%
    16:00 +24°C° 1.6 mm 1 mps 685 mmHg 93%
    17:00 +23°C° 0.9 mm 1 mps 685 mmHg 95%
    18:00 +20°C° 0.9 mm 0 mps 686 mmHg 97%
    19:00 +20°C° 0.9 mm 0 mps 686 mmHg 99%
    20:00 +19°C° 0.2 mm 0 mps 686 mmHg 99%
    21:00 +19°C° 0.2 mm 0 mps 687 mmHg 99%
    22:00 +19°C° 0.2 mm 0 mps 687 mmHg 99%
    23:00 +19°C° 0.1 mm 0 mps 687 mmHg 99%

    24 June, Monday

    Time Temperature Precipitation Wind Pressure Humidity
    00:00 +19°C° 0.1 mm 0 mps 686 mmHg 99%
    01:00 +19°C° 0.1 mm 0 mps 686 mmHg 99%
    02:00 +19°C° 0.2 mm 0 mps 686 mmHg 99%
    03:00 +19°C° 0.2 mm 0 mps 686 mmHg 99%
    04:00 +19°C° 0.2 mm 0 mps 686 mmHg 99%
    05:00 +19°C° 0 mm 0 mps 686 mmHg 99%
    06:00 +19°C° 0 mm 0 mps 687 mmHg 98%
    07:00 +19°C° 0 mm 0 mps 687 mmHg 98%
    08:00 +20°C° 0.5 mm 0 mps 687 mmHg 95%
    09:00 +21°C° 0.5 mm 0 mps 688 mmHg 92%
    10:00 +22°C° 0.5 mm 0 mps 688 mmHg 90%
    11:00 +25°C° 1.9 mm 1 mps 688 mmHg 90%
    12:00 +25°C° 1.9 mm 1 mps 687 mmHg 90%
    13:00 +25°C° 1.9 mm 1 mps 686 mmHg 90%
    14:00 +25°C° 2.1 mm 1 mps 686 mmHg 91%
    15:00 +24°C° 2.1 mm 1 mps 686 mmHg 93%
    16:00 +24°C° 2.1 mm 1 mps 685 mmHg 94%
    17:00 +23°C° 2.4 mm 1 mps 685 mmHg 95%
    18:00 +20°C° 2.4 mm 0 mps 686 mmHg 97%
    19:00 +19°C° 2.4 mm 0 mps 686 mmHg 98%
    20:00 +19°C° 1.6 mm 0 mps 686 mmHg 99%
    21:00 +19°C° 1.6 mm 0 mps 686 mmHg 99%
    22:00 +19°C° 1.6 mm 0 mps 687 mmHg 99%
    23:00 +19°C° 0.4 mm 0 mps 687 mmHg 99%
    Show more